User: anonymous   Login
Location: Unspecified
(0.0000°N, 0.0000°E)
Time: 10:00:40
(UTC+00:00)
Language:

AUBIESAT-1 - Orbit

View from above orbital plane
View from above orbital plane
View from above satellite
View from above satellite

Ground track
Ground track

The orbit data is extracted from the following two-line orbital elements,

1 37854U 11061E   18050.56431738 +.00001821 +00000-0 +10266-3 0  9997
2 37854 101.7128 055.2661 0164712 062.2239 299.5564 15.05091880343680
Epoch (UTC): 19 February 2018 13:32:37
Eccentricity: 0.0164712
inclination: 101.7128°
perigee height: 437 km
apogee height: 665 km
right ascension of ascending node: 55.2661°
argument of perigee: 62.2239°
revolutions per day: 15.05091880
mean anomaly at epoch: 299.5564°
orbit number at epoch: 34368

The dashed part of the orbit path shows where the satellite is in the earth's shadow,  

DLR